WB7OXJ Weather Reports


time (UTC)temp
C
wind
direction
speed
KPH
gust
KPH
rain 1hr
cm
rain 24hr
cm
rain mn
cm
humidity
%
barometer
mb
20260504001600 27 159 0.0 3.2 0.00 0.00 0.00 39 1008.3
20260504000042 27 10 1.6 4.8 0.00 0.00 0.00 39 1008.3
20260503234541 27 185 0.0 3.2 0.00 0.00 0.00 40 1008.4
20260503233042 27 25 0.0 6.4 0.00 0.00 0.00 38 1008.6
20260503231538 27 138 1.6 6.4 0.00 0.00 0.00 39 1008.7
20260503230036 27 17 0.0 3.2 0.00 0.00 0.00 39 1009.0
20260503224534 27 16 3.2 6.4 0.00 0.00 0.00 37 1009.2
20260503223033 27 109 0.0 6.4 0.00 0.00 0.00 40 1009.4
20260503221530 27 150 0.0 11.3 0.00 0.00 0.00 38 1009.7
20260503220027 26 10 1.6 6.4 0.00 0.00 0.00 44 1009.9
20260503214525 26 318 0.0 3.2 0.00 0.00 0.00 41 1010.1
20260503213023 26 318 0.0 4.8 0.00 0.00 0.00 47 1010.3
20260503211522 26 149 0.0 11.3 0.00 0.00 0.00 41 1010.5
20260503210021 26 16 1.6 4.8 0.00 0.00 0.00 48 1010.6
20260503204526 27 24 0.0 4.8 0.00 0.00 0.00 44 1010.8
20260503203017 26 10 0.0 4.8 0.00 0.00 0.00 40 1011.0
20260503201514 26 301 0.0 8.0 0.00 0.00 0.00 39 1011.2
20260503200010 25 36 1.6 9.7 0.00 0.00 0.00 45 1011.4
20260503194505 25 36 1.6 6.4 0.00 0.00 0.00 46 1011.6
20260503193002 25 33 1.6 4.8 0.00 0.00 0.00 49 1011.9
20260503191608 24 23 1.6 4.8 0.00 0.00 0.00 51 1012.1
20260503190104 24 15 1.6 4.8 0.00 0.00 0.00 50 1012.4
20260503184553 -17 0.0 0.0 0.00 0.00 0.00 1012.5
20260503183106 -17 0.0 0.0 0.00 0.00 0.00 1012.6
20260503181608 -17 0.0 0.0 0.00 0.00 0.00 1012.6
20260503180041 -17 0.0 0.0 0.00 0.00 0.00 1012.7
20260503174536 -17 0.0 0.0 0.00 0.00 0.00 1012.7
20260503173031 -17 0.0 0.0 0.00 0.00 0.00 1013.0
20260503171527 -17 0.0 0.0 0.00 0.00 0.00 1013.0
20260503081551 -17 0.0 0.0 0.00 0.00 0.00 1013.4
20260503071537 -17 0.0 0.0 0.00 0.00 0.00 1013.3
20260503054508 -17 0.0 0.0 0.00 0.00 0.00 1013.2
20260503053008 -17 0.0 0.0 0.00 0.00 0.00 1013.1
20260503051559 -17 0.0 0.0 0.00 0.00 0.00 1013.1
20260503050055 -17 0.0 0.0 0.00 0.00 0.00 1013.0
20260503044550 -17 0.0 0.0 0.00 0.00 0.00 1012.9
20260503043047 -17 0.0 0.0 0.00 0.00 0.00 1012.7
20260503041542 -17 0.0 0.0 0.00 0.00 0.00 1012.7
20260503040041 -17 0.0 0.0 0.00 0.00 0.00 1012.4
20260503034534 -17 0.0 0.0 0.00 0.00 0.00 1012.2
20260503033033 -17 0.0 0.0 0.00 0.00 0.00 1012.0
20260503031524 -17 0.0 0.0 0.00 0.00 0.00 1011.9
20260503030022 -17 0.0 0.0 0.00 0.00 0.00 1011.8
20260503024516 22 175 0.0 3.2 0.00 0.00 0.00 29 1011.6
20260503023014 23 158 0.0 1.6 0.00 0.00 0.00 48 1011.5
20260503021513 23 155 0.0 1.6 0.00 0.00 0.00 46 1011.5
20260503020013 24 155 0.0 3.2 0.00 0.00 0.00 44 1011.4
20260503014511 24 155 0.0 3.2 0.00 0.00 0.00 47 1011.2
20260503013008 23 155 0.0 11.3 0.00 0.00 0.00 47 1011.3
20260503011506 23 164 0.0 4.8 0.00 0.00 0.00 50 1011.4
20260503010010 23 164 0.0 3.2 0.00 0.00 0.00 54 1011.3
20260503004503 23 164 1.6 3.2 0.00 0.00 0.00 49 1011.6
20260503003111 23 165 1.6 4.8 0.00 0.00 0.00 49 1011.5